| time (UTC) | temp F | wind direction | speed MPH | gust MPH | rain 1hr in | rain 24hr in | rain mn in | humidity % | barometer mb |
| 20260507193016 | 67 | 313 | 6.0 | 14.0 | 0.00 | 0.00 | 0.00 | 29 | 1012.3 |
| 20260507192507 | 68 | 331 | 8.0 | 16.0 | 0.00 | 0.00 | 0.00 | 29 | 1012.2 |
| 20260507192007 | 67 | 318 | 10.0 | 16.0 | 0.00 | 0.00 | 0.00 | 29 | 1012.2 |
| 20260507191516 | 66 | 344 | 6.0 | 19.0 | 0.00 | 0.00 | 0.00 | 29 | 1012.2 |
| 20260507191017 | 67 | 348 | 8.0 | 19.0 | 0.00 | 0.00 | 0.00 | 30 | 1012.2 |
| 20260507190508 | 68 | 336 | 13.0 | 19.0 | 0.00 | 0.00 | 0.00 | 29 | 1012.2 |
| 20260507190017 | 68 | 296 | 6.0 | 18.0 | 0.00 | 0.00 | 0.00 | 29 | 1012.2 |
| 20260507185516 | 68 | 286 | 15.0 | 19.0 | 0.00 | 0.00 | 0.00 | 31 | 1012.3 |
| 20260507185010 | 68 | 315 | 12.0 | 22.0 | 0.00 | 0.00 | 0.00 | 30 | 1012.3 |
| 20260507184518 | 67 | 319 | 6.0 | 22.0 | 0.00 | 0.00 | 0.00 | 30 | 1012.3 |
| 20260507184019 | 67 | 317 | 13.0 | 22.0 | 0.00 | 0.00 | 0.00 | 31 | 1012.3 |
| 20260507183508 | 67 | 313 | 5.0 | 20.0 | 0.00 | 0.00 | 0.00 | 30 | 1012.4 |
| 20260507183024 | 67 | 327 | 14.0 | 20.0 | 0.00 | 0.00 | 0.00 | 30 | 1012.4 |
| 20260507182507 | 67 | 313 | 9.0 | 16.0 | 0.00 | 0.00 | 0.00 | 31 | 1012.4 |
| 20260507182009 | 67 | 341 | 9.0 | 24.0 | 0.00 | 0.00 | 0.00 | 30 | 1012.4 |
| 20260507181518 | 67 | 311 | 12.0 | 24.0 | 0.00 | 0.00 | 0.00 | 33 | 1012.4 |
| 20260507181006 | 66 | 306 | 8.0 | 20.0 | 0.00 | 0.00 | 0.00 | 32 | 1012.3 |
| 20260507180504 | 66 | 307 | 13.0 | 18.0 | 0.00 | 0.00 | 0.00 | 33 | 1012.5 |
| 20260507180012 | 66 | 311 | 8.0 | 16.0 | 0.00 | 0.00 | 0.00 | 33 | 1012.6 |
| 20260507175506 | 65 | 303 | 11.0 | 17.0 | 0.00 | 0.00 | 0.00 | 34 | 1012.5 |
| 20260507175009 | 65 | 310 | 8.0 | 17.0 | 0.00 | 0.00 | 0.00 | 35 | 1012.5 |
| 20260507174525 | 65 | 320 | 10.0 | 15.0 | 0.00 | 0.00 | 0.00 | 35 | 1012.4 |
| 20260507174009 | 65 | 321 | 8.0 | 15.0 | 0.00 | 0.00 | 0.00 | 35 | 1012.5 |
| 20260507173508 | 65 | 306 | 6.0 | 19.0 | 0.00 | 0.00 | 0.00 | 36 | 1012.5 |
| 20260507173021 | 64 | 308 | 13.0 | 19.0 | 0.00 | 0.00 | 0.00 | 35 | 1012.5 |
| 20260507172503 | 64 | 337 | 7.0 | 11.0 | 0.00 | 0.00 | 0.00 | 36 | 1012.4 |
| 20260507172002 | 64 | 336 | 7.0 | 14.0 | 0.00 | 0.00 | 0.00 | 35 | 1012.3 |
| 20260507171505 | 64 | 340 | 9.0 | 18.0 | 0.00 | 0.00 | 0.00 | 35 | 1012.3 |
| 20260507171004 | 64 | 339 | 11.0 | 18.0 | 0.00 | 0.00 | 0.00 | 35 | 1012.3 |
| 20260507170504 | 64 | 326 | 9.0 | 17.0 | 0.00 | 0.00 | 0.00 | 36 | 1012.3 |
| 20260507170010 | 64 | 318 | 10.0 | 17.0 | 0.00 | 0.00 | 0.00 | 37 | 1012.5 |
| 20260507165506 | 64 | 324 | 10.0 | 17.0 | 0.00 | 0.00 | 0.00 | 37 | 1012.6 |
| 20260507165010 | 64 | 315 | 10.0 | 17.0 | 0.00 | 0.00 | 0.00 | 36 | 1012.7 |
| 20260507164512 | 64 | 325 | 12.0 | 16.0 | 0.00 | 0.00 | 0.00 | 36 | 1012.6 |
| 20260507164007 | 64 | 327 | 13.0 | 16.0 | 0.00 | 0.00 | 0.00 | 38 | 1012.7 |
| 20260507163507 | 63 | 314 | 10.0 | 20.0 | 0.00 | 0.00 | 0.00 | 39 | 1012.7 |
| 20260507163017 | 63 | 324 | 13.0 | 20.0 | 0.00 | 0.00 | 0.00 | 39 | 1012.8 |
| 20260507162524 | 62 | 312 | 13.0 | 20.0 | 0.00 | 0.00 | 0.00 | 38 | 1012.9 |
| 20260507162010 | 62 | 314 | 12.0 | 18.0 | 0.00 | 0.00 | 0.00 | 40 | 1013.1 |
| 20260507161520 | 61 | 323 | 11.0 | 17.0 | 0.00 | 0.00 | 0.00 | 43 | 1013.3 |
| 20260507161016 | 60 | 330 | 10.0 | 20.0 | 0.00 | 0.00 | 0.00 | 46 | 1013.3 |
| 20260507160503 | 60 | 336 | 12.0 | 21.0 | 0.00 | 0.00 | 0.00 | 49 | 1013.5 |
| 20260507160006 | 59 | 339 | 14.0 | 22.0 | 0.00 | 0.00 | 0.00 | 50 | 1013.5 |
| 20260507155510 | 59 | 338 | 14.0 | 22.0 | 0.00 | 0.00 | 0.00 | 50 | 1013.4 |
| 20260507155006 | 57 | 345 | 10.0 | 14.0 | 0.00 | 0.00 | 0.00 | 56 | 1013.4 |
| 20260507154524 | 55 | 355 | 8.0 | 11.0 | 0.00 | 0.00 | 0.00 | 62 | 1013.2 |
| 20260507154004 | 54 | 355 | 9.0 | 11.0 | 0.00 | 0.00 | 0.00 | 65 | 1013.1 |
| 20260507153505 | 54 | 355 | 9.0 | 11.0 | 0.00 | 0.00 | 0.00 | 65 | 1013.0 |
| 20260507153029 | 53 | 355 | 9.0 | 11.0 | 0.00 | 0.00 | 0.00 | 66 | 1013.1 |
| 20260507152508 | 52 | 355 | 7.0 | 12.0 | 0.00 | 0.00 | 0.00 | 66 | 1013.0 |
| 20260507152009 | 52 | 355 | 9.0 | 12.0 | 0.00 | 0.00 | 0.00 | 67 | 1013.0 |
| 20260507151519 | 52 | 355 | 9.0 | 11.0 | 0.00 | 0.00 | 0.00 | 69 | 1013.0 |
| 20260507151008 | 51 | 355 | 8.0 | 11.0 | 0.00 | 0.00 | 0.00 | 67 | 1012.9 |
| 20260507150525 | 52 | 360 | 9.0 | 11.0 | 0.00 | 0.00 | 0.00 | 69 | 1012.9 |
| 20260507150027 | 52 | 360 | 4.0 | 6.0 | 0.00 | 0.00 | 0.00 | 61 | 1013.1 |
| 20260507145508 | 52 | 360 | 4.0 | 6.0 | 0.00 | 0.00 | 0.00 | 61 | 1013.1 |
| 20260507145007 | 51 | 360 | 4.0 | 5.0 | 0.00 | 0.00 | 0.00 | 60 | 1013.2 |
| 20260507144509 | 51 | 360 | 4.0 | 5.0 | 0.00 | 0.00 | 0.00 | 62 | 1013.1 |
| 20260507144007 | 51 | 360 | 3.0 | 6.0 | 0.00 | 0.00 | 0.00 | 59 | 1013.2 |
| 20260507143507 | 50 | 360 | 4.0 | 8.0 | 0.00 | 0.00 | 0.00 | 63 | 1013.3 |
| 20260507143020 | 50 | 360 | 4.0 | 8.0 | 0.00 | 0.00 | 0.00 | 64 | 1013.0 |
| 20260507142506 | 50 | 360 | 4.0 | 8.0 | 0.00 | 0.00 | 0.00 | 61 | 1013.0 |
| 20260507142009 | 49 | 360 | 1.0 | 5.0 | 0.00 | 0.00 | 0.00 | 60 | 1013.0 |
| 20260507141531 | 49 | 360 | 2.0 | 5.0 | 0.00 | 0.00 | 0.00 | 65 | 1013.0 |
| 20260507141006 | 49 | 360 | 3.0 | 6.0 | 0.00 | 0.00 | 0.00 | 64 | 1013.0 |
| 20260507140507 | 49 | 360 | 4.0 | 6.0 | 0.00 | 0.00 | 0.00 | 63 | 1012.9 |
| 20260507140023 | 49 | 360 | 3.0 | 6.0 | 0.00 | 0.00 | 0.00 | 62 | 1012.8 |
| 20260507135508 | 49 | 360 | 4.0 | 6.0 | 0.00 | 0.00 | 0.00 | 64 | 1012.9 |
| 20260507135007 | 48 | 360 | 0.0 | 4.0 | 0.00 | 0.00 | 0.00 | 66 | 1012.8 |
| 20260507134526 | 48 | 360 | 0.0 | 5.0 | 0.00 | 0.00 | 0.00 | 63 | 1012.9 |
| 20260507134008 | 48 | 360 | 3.0 | 6.0 | 0.00 | 0.00 | 0.00 | 65 | 1012.9 |
| 20260507133507 | 48 | 360 | 3.0 | 9.0 | 0.00 | 0.00 | 0.00 | 64 | 1012.8 |
| 20260507133008 | 48 | 360 | 5.0 | 9.0 | 0.00 | 0.00 | 0.00 | 64 | 1012.7 |
| 20260507132504 | 48 | 360 | 8.0 | 9.0 | 0.00 | 0.00 | 0.00 | 65 | 1012.6 |
| 20260507132007 | 48 | 360 | 6.0 | 10.0 | 0.00 | 0.00 | 0.00 | 65 | 1012.5 |
| 20260507131519 | 48 | 360 | 7.0 | 11.0 | 0.00 | 0.00 | 0.00 | 65 | 1012.4 |
| 20260507131038 | 48 | 360 | 7.0 | 11.0 | 0.00 | 0.00 | 0.00 | 66 | 1012.3 |
| 20260507130510 | 48 | 360 | 9.0 | 12.0 | 0.00 | 0.00 | 0.00 | 66 | 1012.3 |
| 20260507130030 | 48 | 360 | 9.0 | 13.0 | 0.00 | 0.00 | 0.00 | 67 | 1012.3 |
| 20260507125540 | 48 | 5 | 9.0 | 13.0 | 0.00 | 0.00 | 0.00 | 66 | 1012.3 |
| 20260507125008 | 48 | 20 | 7.0 | 12.0 | 0.00 | 0.00 | 0.00 | 68 | 1012.2 |
| 20260507124528 | 47 | 20 | 9.0 | 12.0 | 0.00 | 0.00 | 0.00 | 66 | 1012.2 |
| 20260507124034 | 47 | 32 | 8.0 | 11.0 | 0.00 | 0.00 | 0.00 | 67 | 1012.2 |
| 20260507123508 | 47 | 50 | 7.0 | 10.0 | 0.00 | 0.00 | 0.00 | 68 | 1012.1 |
| 20260507123026 | 46 | 50 | 5.0 | 10.0 | 0.00 | 0.00 | 0.00 | 67 | 1012.2 |
| 20260507122512 | 46 | 50 | 6.0 | 10.0 | 0.00 | 0.00 | 0.00 | 66 | 1012.2 |
| 20260507122013 | 46 | 57 | 5.0 | 9.0 | 0.00 | 0.00 | 0.00 | 66 | 1012.2 |
| 20260507121510 | 46 | 57 | 6.0 | 9.0 | 0.00 | 0.00 | 0.00 | 66 | 1012.1 |
| 20260507121008 | 46 | 57 | 6.0 | 10.0 | 0.00 | 0.00 | 0.00 | 65 | 1012.1 |
| 20260507120511 | 46 | 57 | 6.0 | 10.0 | 0.00 | 0.00 | 0.00 | 65 | 1012.1 |
| 20260507120020 | 46 | 58 | 6.0 | 9.0 | 0.00 | 0.00 | 0.00 | 67 | 1012.0 |
| 20260507115509 | 46 | 59 | 6.0 | 10.0 | 0.00 | 0.00 | 0.00 | 68 | 1011.9 |
| 20260507115009 | 45 | 59 | 6.0 | 10.0 | 0.00 | 0.00 | 0.00 | 66 | 1011.9 |
| 20260507114519 | 45 | 61 | 8.0 | 10.0 | 0.00 | 0.00 | 0.00 | 64 | 1012.0 |
| 20260507114014 | 45 | 63 | 6.0 | 9.0 | 0.00 | 0.00 | 0.00 | 66 | 1012.0 |
| 20260507113511 | 45 | 63 | 6.0 | 9.0 | 0.00 | 0.00 | 0.00 | 65 | 1011.9 |
| 20260507113025 | 46 | 63 | 6.0 | 10.0 | 0.00 | 0.00 | 0.00 | 64 | 1011.8 |
| 20260507112509 | 46 | 63 | 5.0 | 10.0 | 0.00 | 0.00 | 0.00 | 65 | 1011.8 |
| 20260507112008 | 46 | 63 | 5.0 | 10.0 | 0.00 | 0.00 | 0.00 | 65 | 1011.8 |
| 20260507111526 | 46 | 63 | 7.0 | 10.0 | 0.00 | 0.00 | 0.00 | 64 | 1011.8 |
| 20260507111010 | 46 | 63 | 6.0 | 10.0 | 0.00 | 0.00 | 0.00 | 64 | 1011.8 |
| 20260507110510 | 46 | 63 | 4.0 | 9.0 | 0.00 | 0.00 | 0.00 | 64 | 1011.5 |
| 20260507110026 | 46 | 63 | 3.0 | 9.0 | 0.00 | 0.00 | 0.00 | 64 | 1011.6 |
| 20260507105508 | 45 | 63 | 5.0 | 9.0 | 0.00 | 0.00 | 0.00 | 64 | 1011.7 |
| 20260507105006 | 45 | 63 | 4.0 | 8.0 | 0.00 | 0.00 | 0.00 | 62 | 1011.6 |
| 20260507104518 | 46 | 63 | 6.0 | 8.0 | 0.00 | 0.00 | 0.00 | 61 | 1011.6 |
| 20260507104010 | 46 | 63 | 4.0 | 6.0 | 0.00 | 0.00 | 0.00 | 65 | 1011.5 |
| 20260507103536 | 46 | 63 | 4.0 | 6.0 | 0.00 | 0.00 | 0.00 | 66 | 1011.5 |
| 20260507103029 | 46 | 63 | 3.0 | 6.0 | 0.00 | 0.00 | 0.00 | 70 | 1011.5 |
| 20260507102508 | 45 | 63 | 3.0 | 4.0 | 0.00 | 0.00 | 0.00 | 68 | 1011.5 |
| 20260507102009 | 44 | 63 | 2.0 | 6.0 | 0.00 | 0.00 | 0.00 | 66 | 1011.5 |
| 20260507101525 | 44 | 63 | 4.0 | 8.0 | 0.00 | 0.00 | 0.00 | 63 | 1011.6 |
| 20260507101008 | 44 | 63 | 5.0 | 8.0 | 0.00 | 0.00 | 0.00 | 65 | 1011.6 |
| 20260507100510 | 43 | 63 | 3.0 | 8.0 | 0.00 | 0.00 | 0.00 | 64 | 1011.7 |
| 20260507100032 | 44 | 63 | 6.0 | 8.0 | 0.00 | 0.00 | 0.00 | 65 | 1011.8 |
| 20260507095511 | 44 | 63 | 5.0 | 8.0 | 0.00 | 0.00 | 0.00 | 65 | 1011.7 |
| 20260507095011 | 44 | 63 | 5.0 | 8.0 | 0.00 | 0.00 | 0.00 | 70 | 1011.7 |
| 20260507094528 | 43 | 63 | 4.0 | 6.0 | 0.00 | 0.00 | 0.00 | 72 | 1011.7 |
| 20260507094010 | 42 | 63 | 3.0 | 6.0 | 0.00 | 0.00 | 0.00 | 73 | 1011.7 |
| 20260507093507 | 40 | 63 | 3.0 | 9.0 | 0.00 | 0.00 | 0.00 | 66 | 1011.7 |
| 20260507093018 | 40 | 63 | 5.0 | 9.0 | 0.00 | 0.00 | 0.00 | 67 | 1011.7 |
| 20260507092513 | 39 | 63 | 5.0 | 8.0 | 0.00 | 0.00 | 0.00 | 67 | 1011.8 |
| 20260507092008 | 39 | 63 | 5.0 | 8.0 | 0.00 | 0.00 | 0.00 | 66 | 1011.7 |
| 20260507091526 | 39 | 63 | 5.0 | 8.0 | 0.00 | 0.00 | 0.00 | 65 | 1011.8 |
| 20260507091011 | 40 | 63 | 5.0 | 8.0 | 0.00 | 0.00 | 0.00 | 63 | 1011.7 |
| 20260507090510 | 41 | 63 | 4.0 | 9.0 | 0.00 | 0.00 | 0.00 | 62 | 1011.7 |
| 20260507090026 | 42 | 63 | 7.0 | 9.0 | 0.00 | 0.00 | 0.00 | 62 | 1011.6 |
| 20260507085507 | 41 | 63 | 6.0 | 9.0 | 0.00 | 0.00 | 0.00 | 63 | 1011.7 |
| 20260507085025 | 41 | 63 | 7.0 | 10.0 | 0.00 | 0.00 | 0.00 | 62 | 1011.6 |
| 20260507084527 | 41 | 63 | 8.0 | 10.0 | 0.00 | 0.00 | 0.00 | 61 | 1011.7 |
| 20260507084013 | 41 | 63 | 7.0 | 10.0 | 0.00 | 0.00 | 0.00 | 60 | 1011.5 |
| 20260507083508 | 41 | 63 | 8.0 | 10.0 | 0.00 | 0.00 | 0.00 | 60 | 1011.5 |
| 20260507083028 | 41 | 63 | 7.0 | 9.0 | 0.00 | 0.00 | 0.00 | 60 | 1011.4 |
| 20260507082508 | 41 | 63 | 6.0 | 10.0 | 0.00 | 0.00 | 0.00 | 59 | 1011.4 |
| 20260507082010 | 42 | 63 | 7.0 | 12.0 | 0.00 | 0.00 | 0.00 | 59 | 1011.4 |
| 20260507081539 | 42 | 63 | 9.0 | 12.0 | 0.00 | 0.00 | 0.00 | 58 | 1011.4 |
| 20260507081008 | 41 | 66 | 7.0 | 10.0 | 0.00 | 0.00 | 0.00 | 58 | 1011.4 |
| 20260507080509 | 42 | 66 | 8.0 | 11.0 | 0.00 | 0.00 | 0.00 | 58 | 1011.2 |
| 20260507080005 | 42 | 66 | 9.0 | 11.0 | 0.00 | 0.00 | 0.00 | 57 | 1011.2 |
| 20260507075503 | 43 | 68 | 8.0 | 10.0 | 0.00 | 0.00 | 0.00 | 55 | 1011.1 |
| 20260507075004 | 44 | 68 | 8.0 | 9.0 | 0.00 | 0.00 | 0.00 | 54 | 1011.1 |
| 20260507074507 | 45 | 68 | 5.0 | 10.0 | 0.00 | 0.00 | 0.00 | 56 | 1011.0 |
| 20260507074009 | 46 | 68 | 7.0 | 10.0 | 0.00 | 0.00 | 0.00 | 54 | 1011.0 |
| 20260507073507 | 47 | 97 | 6.0 | 9.0 | 0.00 | 0.00 | 0.00 | 57 | 1010.8 |
| 20260507073013 | 48 | 97 | 5.0 | 9.0 | 0.00 | 0.00 | 0.00 | 59 | 1010.8 |
| 20260507072505 | 49 | 97 | 7.0 | 9.0 | 0.00 | 0.00 | 0.00 | 57 | 1010.7 |
| 20260507072008 | 48 | 97 | 0.0 | 2.0 | 0.00 | 0.00 | 0.00 | 57 | 1010.6 |
| 20260507071544 | 48 | 97 | 0.0 | 7.0 | 0.00 | 0.00 | 0.00 | 55 | 1010.5 |
| 20260507071008 | 48 | 97 | 2.0 | 7.0 | 0.00 | 0.00 | 0.00 | 50 | 1010.5 |
| 20260507070509 | 48 | 97 | 3.0 | 8.0 | 0.00 | 0.00 | 0.00 | 49 | 1010.6 |
| 20260507070022 | 47 | 97 | 6.0 | 8.0 | 0.00 | 0.00 | 0.00 | 49 | 1010.5 |
| 20260507065508 | 47 | 97 | 7.0 | 8.0 | 0.00 | 0.00 | 0.00 | 49 | 1010.4 |
| 20260507065010 | 47 | 97 | 6.0 | 8.0 | 0.00 | 0.00 | 0.00 | 50 | 1010.3 |
| 20260507064506 | 47 | 97 | 5.0 | 7.0 | 0.00 | 0.00 | 0.00 | 50 | 1010.2 |
| 20260507064008 | 47 | 97 | 4.0 | 9.0 | 0.00 | 0.00 | 0.00 | 51 | 1010.1 |
| 20260507063504 | 47 | 97 | 5.0 | 9.0 | 0.00 | 0.00 | 0.00 | 52 | 1010.0 |
| 20260507063008 | 47 | 97 | 7.0 | 9.0 | 0.00 | 0.00 | 0.00 | 52 | 1009.9 |
| 20260507062530 | 47 | 97 | 4.0 | 6.0 | 0.00 | 0.00 | 0.00 | 55 | 1009.8 |
| 20260507062005 | 47 | 97 | 4.0 | 6.0 | 0.00 | 0.00 | 0.00 | 56 | 1009.8 |
| 20260507061511 | 47 | 97 | 3.0 | 6.0 | 0.00 | 0.00 | 0.00 | 52 | 1009.8 |
| 20260507061007 | 47 | 97 | 3.0 | 6.0 | 0.00 | 0.00 | 0.00 | 50 | 1009.8 |
| 20260507060507 | 47 | 97 | 3.0 | 6.0 | 0.00 | 0.00 | 0.00 | 48 | 1009.8 |
| 20260507060016 | 48 | 97 | 3.0 | 6.0 | 0.00 | 0.00 | 0.00 | 48 | 1009.7 |
| 20260507055519 | 48 | 97 | 3.0 | 6.0 | 0.00 | 0.00 | 0.00 | 49 | 1009.5 |
| 20260507055012 | 49 | 97 | 2.0 | 6.0 | 0.00 | 0.00 | 0.00 | 55 | 1009.5 |
| 20260507054520 | 50 | 97 | 4.0 | 7.0 | 0.00 | 0.00 | 0.00 | 60 | 1009.4 |
| 20260507054012 | 50 | 97 | 4.0 | 9.0 | 0.00 | 0.00 | 0.00 | 61 | 1009.3 |
| 20260507053509 | 51 | 97 | 5.0 | 10.0 | 0.00 | 0.00 | 0.00 | 58 | 1009.2 |
| 20260507053026 | 51 | 97 | 8.0 | 13.0 | 0.00 | 0.00 | 0.00 | 54 | 1009.2 |
| 20260507052509 | 51 | 97 | 8.0 | 14.0 | 0.00 | 0.00 | 0.00 | 55 | 1009.2 |
| 20260507052007 | 52 | 97 | 9.0 | 14.0 | 0.00 | 0.00 | 0.00 | 54 | 1009.1 |
| 20260507051510 | 52 | 99 | 11.0 | 16.0 | 0.00 | 0.00 | 0.00 | 52 | 1009.0 |
| 20260507051003 | 52 | 92 | 12.0 | 17.0 | 0.00 | 0.00 | 0.00 | 52 | 1009.0 |
| 20260507050505 | 52 | 93 | 13.0 | 17.0 | 0.00 | 0.00 | 0.00 | 49 | 1009.1 |
| 20260507050019 | 53 | 86 | 12.0 | 16.0 | 0.00 | 0.00 | 0.00 | 48 | 1009.3 |
| 20260507045509 | 53 | 88 | 11.0 | 19.0 | 0.00 | 0.00 | 0.00 | 50 | 1009.2 |
| 20260507045048 | 53 | 85 | 14.0 | 19.0 | 0.00 | 0.00 | 0.00 | 50 | 1009.1 |
| 20260507044519 | 54 | 88 | 14.0 | 19.0 | 0.00 | 0.00 | 0.00 | 49 | 1009.0 |
| 20260507044009 | 54 | 91 | 14.0 | 19.0 | 0.00 | 0.00 | 0.00 | 48 | 1008.9 |
| 20260507043507 | 55 | 94 | 15.0 | 21.0 | 0.00 | 0.00 | 0.00 | 49 | 1008.7 |
| 20260507043026 | 55 | 93 | 16.0 | 23.0 | 0.00 | 0.00 | 0.00 | 47 | 1008.6 |
| 20260507042509 | 55 | 88 | 16.0 | 23.0 | 0.00 | 0.00 | 0.00 | 47 | 1008.7 |
| 20260507042007 | 55 | 83 | 16.0 | 23.0 | 0.00 | 0.00 | 0.00 | 46 | 1008.7 |
| 20260507041547 | 55 | 83 | 16.0 | 23.0 | 0.00 | 0.00 | 0.00 | 46 | 1008.6 |
| 20260507041010 | 55 | 86 | 18.0 | 22.0 | 0.00 | 0.00 | 0.00 | 45 | 1008.5 |
| 20260507040507 | 55 | 76 | 18.0 | 23.0 | 0.00 | 0.00 | 0.00 | 45 | 1008.5 |
| 20260507040054 | 56 | 76 | 18.0 | 23.0 | 0.00 | 0.00 | 0.00 | 45 | 1008.6 |
| 20260507035505 | 56 | 72 | 17.0 | 21.0 | 0.00 | 0.00 | 0.00 | 45 | 1008.5 |
| 20260507035005 | 56 | 75 | 15.0 | 20.0 | 0.00 | 0.00 | 0.00 | 46 | 1008.3 |
| 20260507034529 | 57 | 78 | 15.0 | 20.0 | 0.00 | 0.00 | 0.00 | 46 | 1008.0 |
| 20260507034006 | 57 | 76 | 15.0 | 19.0 | 0.00 | 0.00 | 0.00 | 45 | 1007.9 |
| 20260507033506 | 57 | 76 | 14.0 | 18.0 | 0.00 | 0.00 | 0.00 | 46 | 1007.9 |
| 20260507033033 | 58 | 74 | 13.0 | 16.0 | 0.00 | 0.00 | 0.00 | 44 | 1007.8 |
| 20260507032509 | 58 | 68 | 12.0 | 18.0 | 0.00 | 0.00 | 0.00 | 44 | 1007.8 |
| 20260507032010 | 59 | 68 | 13.0 | 18.0 | 0.00 | 0.00 | 0.00 | 42 | 1007.7 |
| 20260507031522 | 59 | 71 | 13.0 | 18.0 | 0.00 | 0.00 | 0.00 | 42 | 1007.6 |
| 20260507031008 | 59 | 73 | 15.0 | 18.0 | 0.00 | 0.00 | 0.00 | 44 | 1007.5 |
| 20260507030508 | 59 | 82 | 12.0 | 16.0 | 0.00 | 0.00 | 0.00 | 50 | 1007.3 |
| 20260507030053 | 59 | 88 | 11.0 | 13.0 | 0.00 | 0.00 | 0.00 | 48 | 1007.1 |
| 20260507025506 | 59 | 88 | 9.0 | 12.0 | 0.00 | 0.00 | 0.00 | 47 | 1007.0 |
| 20260507025005 | 60 | 88 | 10.0 | 13.0 | 0.00 | 0.00 | 0.00 | 52 | 1007.0 |
| 20260507024513 | 61 | 88 | 11.0 | 14.0 | 0.00 | 0.00 | 0.00 | 48 | 1006.7 |
| 20260507024006 | 61 | 88 | 11.0 | 15.0 | 0.00 | 0.00 | 0.00 | 47 | 1006.5 |
| 20260507023505 | 61 | 88 | 12.0 | 16.0 | 0.00 | 0.00 | 0.00 | 46 | 1006.5 |
| 20260507023024 | 61 | 87 | 13.0 | 16.0 | 0.00 | 0.00 | 0.00 | 46 | 1006.6 |
| 20260507022522 | 61 | 82 | 12.0 | 14.0 | 0.00 | 0.00 | 0.00 | 49 | 1006.6 |
| 20260507022009 | 61 | 82 | 11.0 | 14.0 | 0.00 | 0.00 | 0.00 | 49 | 1006.6 |
| 20260507021522 | 62 | 82 | 11.0 | 14.0 | 0.00 | 0.00 | 0.00 | 47 | 1006.5 |
| 20260507021010 | 62 | 82 | 11.0 | 14.0 | 0.00 | 0.00 | 0.00 | 44 | 1006.5 |
| 20260507020510 | 62 | 82 | 8.0 | 10.0 | 0.00 | 0.00 | 0.00 | 50 | 1006.5 |
| 20260507020026 | 63 | 82 | 6.0 | 12.0 | 0.00 | 0.00 | 0.00 | 46 | 1006.5 |
| 20260507015508 | 63 | 82 | 8.0 | 12.0 | 0.00 | 0.00 | 0.00 | 43 | 1006.4 |
| 20260507015017 | 63 | 82 | 9.0 | 12.0 | 0.00 | 0.00 | 0.00 | 43 | 1006.1 |
| 20260507014526 | 64 | 82 | 8.0 | 12.0 | 0.00 | 0.00 | 0.00 | 45 | 1006.1 |
| 20260507014011 | 64 | 82 | 9.0 | 14.0 | 0.00 | 0.00 | 0.00 | 43 | 1006.2 |
| 20260507013508 | 64 | 82 | 10.0 | 15.0 | 0.00 | 0.00 | 0.00 | 42 | 1006.2 |
| 20260507013013 | 64 | 82 | 11.0 | 16.0 | 0.00 | 0.00 | 0.00 | 41 | 1006.1 |
| 20260507012508 | 65 | 82 | 12.0 | 16.0 | 0.00 | 0.00 | 0.00 | 41 | 1006.1 |
| 20260507012008 | 64 | 82 | 11.0 | 15.0 | 0.00 | 0.00 | 0.00 | 43 | 1006.0 |
| 20260507011520 | 65 | 81 | 13.0 | 15.0 | 0.00 | 0.00 | 0.00 | 40 | 1006.1 |
| 20260507011007 | 65 | 78 | 13.0 | 17.0 | 0.00 | 0.00 | 0.00 | 41 | 1006.1 |
| 20260507010511 | 66 | 77 | 12.0 | 17.0 | 0.00 | 0.00 | 0.00 | 39 | 1006.0 |
| 20260507010026 | 66 | 77 | 14.0 | 18.0 | 0.00 | 0.00 | 0.00 | 34 | 1005.9 |
| 20260507005508 | 66 | 77 | 14.0 | 18.0 | 0.00 | 0.00 | 0.00 | 34 | 1005.8 |
| 20260507005015 | 67 | 76 | 13.0 | 17.0 | 0.00 | 0.00 | 0.00 | 37 | 1005.8 |
| 20260507004535 | 68 | 19 | 10.0 | 12.0 | 0.00 | 0.00 | 0.00 | 40 | 1006.0 |
| 20260507004010 | 69 | 19 | 4.0 | 5.0 | 0.00 | 0.00 | 0.00 | 34 | 1006.0 |
| 20260507003512 | 68 | 19 | 3.0 | 5.0 | 0.00 | 0.00 | 0.00 | 30 | 1006.1 |
| 20260507003025 | 68 | 19 | 3.0 | 5.0 | 0.00 | 0.00 | 0.00 | 32 | 1006.0 |
| 20260507002512 | 68 | 19 | 3.0 | 5.0 | 0.00 | 0.00 | 0.00 | 34 | 1006.0 |
| 20260507002017 | 68 | 19 | 4.0 | 5.0 | 0.00 | 0.00 | 0.00 | 35 | 1006.1 |
| 20260507001551 | 68 | 19 | 3.0 | 5.0 | 0.00 | 0.00 | 0.00 | 30 | 1006.2 |
| 20260507001008 | 68 | 19 | 4.0 | 5.0 | 0.00 | 0.00 | 0.00 | 41 | 1006.2 |
| 20260507000509 | 69 | 19 | 3.0 | 5.0 | 0.00 | 0.00 | 0.00 | 32 | 1006.1 |
| 20260507000022 | 69 | 19 | 3.0 | 5.0 | 0.00 | 0.00 | 0.00 | 31 | 1006.1 |
| 20260506235507 | 69 | 19 | 3.0 | 5.0 | 0.00 | 0.00 | 0.00 | 33 | 1006.1 |
| 20260506235008 | 69 | 19 | 4.0 | 7.0 | 0.00 | 0.00 | 0.00 | 31 | 1006.1 |
| 20260506234555 | 69 | 19 | 3.0 | 7.0 | 0.00 | 0.00 | 0.00 | 33 | 1006.2 |
| 20260506234011 | 69 | 19 | 4.0 | 9.0 | 0.00 | 0.00 | 0.00 | 29 | 1006.2 |
| 20260506233509 | 69 | 19 | 6.0 | 10.0 | 0.00 | 0.00 | 0.00 | 32 | 1006.2 |
| 20260506233028 | 68 | 19 | 7.0 | 10.0 | 0.00 | 0.00 | 0.00 | 42 | 1006.2 |
| 20260506232509 | 69 | 19 | 7.0 | 9.0 | 0.00 | 0.00 | 0.00 | 37 | 1006.2 |
| 20260506232009 | 68 | 19 | 5.0 | 8.0 | 0.00 | 0.00 | 0.00 | 36 | 1006.4 |
| 20260506231527 | 69 | 19 | 6.0 | 8.0 | 0.00 | 0.00 | 0.00 | 37 | 1006.5 |
| 20260506231008 | 69 | 19 | 7.0 | 9.0 | 0.00 | 0.00 | 0.00 | 41 | 1006.5 |
| 20260506230509 | 69 | 19 | 6.0 | 9.0 | 0.00 | 0.00 | 0.00 | 38 | 1006.6 |
| 20260506230028 | 67 | 19 | 8.0 | 9.0 | 0.00 | 0.00 | 0.00 | 47 | 1006.7 |
| 20260506225508 | 67 | 19 | 8.0 | 9.0 | 0.00 | 0.00 | 0.00 | 45 | 1006.8 |
| 20260506225008 | 67 | 19 | 7.0 | 9.0 | 0.00 | 0.00 | 0.00 | 43 | 1006.9 |
| 20260506224523 | 68 | 19 | 5.0 | 11.0 | 0.00 | 0.00 | 0.00 | 39 | 1006.9 |
| 20260506224011 | 68 | 19 | 7.0 | 11.0 | 0.00 | 0.00 | 0.00 | 38 | 1007.1 |
| 20260506223513 | 68 | 339 | 7.0 | 9.0 | 0.00 | 0.00 | 0.00 | 39 | 1007.2 |
| 20260506223026 | 69 | 338 | 3.0 | 8.0 | 0.00 | 0.00 | 0.00 | 39 | 1007.3 |
| 20260506222508 | 70 | 338 | 5.0 | 8.0 | 0.00 | 0.00 | 0.00 | 36 | 1007.3 |
| 20260506222015 | 71 | 331 | 6.0 | 8.0 | 0.00 | 0.00 | 0.00 | 31 | 1007.3 |
| 20260506221525 | 73 | 331 | 2.0 | 8.0 | 0.00 | 0.00 | 0.00 | 25 | 1007.4 |
| 20260506221014 | 74 | 331 | 1.0 | 11.0 | 0.00 | 0.00 | 0.00 | 23 | 1007.4 |
| 20260506220507 | 73 | 331 | 3.0 | 11.0 | 0.00 | 0.00 | 0.00 | 21 | 1007.5 |
| 20260506220034 | 73 | 330 | 6.0 | 11.0 | 0.00 | 0.00 | 0.00 | 21 | 1007.6 |
| 20260506215507 | 72 | 330 | 3.0 | 12.0 | 0.00 | 0.00 | 0.00 | 21 | 1007.7 |
| 20260506215012 | 72 | 327 | 9.0 | 12.0 | 0.00 | 0.00 | 0.00 | 22 | 1007.7 |
| 20260506214521 | 70 | 321 | 5.0 | 10.0 | 0.00 | 0.00 | 0.00 | 24 | 1007.7 |
| 20260506214009 | 71 | 321 | 6.0 | 10.0 | 0.00 | 0.00 | 0.00 | 23 | 1007.8 |
| 20260506213509 | 72 | 321 | 4.0 | 11.0 | 0.00 | 0.00 | 0.00 | 24 | 1007.9 |
| 20260506213028 | 71 | 321 | 6.0 | 11.0 | 0.00 | 0.00 | 0.00 | 23 | 1008.0 |
| 20260506212504 | 72 | 321 | 4.0 | 10.0 | 0.00 | 0.00 | 0.00 | 21 | 1008.1 |
| 20260506212004 | 72 | 321 | 6.0 | 10.0 | 0.00 | 0.00 | 0.00 | 23 | 1008.3 |
| 20260506211508 | 71 | 321 | 4.0 | 9.0 | 0.00 | 0.00 | 0.00 | 23 | 1008.3 |
| 20260506211004 | 71 | 321 | 1.0 | 18.0 | 0.00 | 0.00 | 0.00 | 24 | 1008.3 |
| 20260506210504 | 71 | 321 | 7.0 | 18.0 | 0.00 | 0.00 | 0.00 | 22 | 1008.3 |
| 20260506210013 | 71 | 323 | 9.0 | 15.0 | 0.00 | 0.00 | 0.00 | 22 | 1008.3 |
| 20260506205510 | 71 | 331 | 3.0 | 11.0 | 0.00 | 0.00 | 0.00 | 24 | 1008.4 |
| 20260506205007 | 70 | 331 | 1.0 | 14.0 | 0.00 | 0.00 | 0.00 | 22 | 1008.4 |
| 20260506204518 | 70 | 333 | 5.0 | 14.0 | 0.00 | 0.00 | 0.00 | 24 | 1008.5 |
| 20260506204007 | 68 | 348 | 3.0 | 6.0 | 0.00 | 0.00 | 0.00 | 35 | 1008.7 |
| 20260506203510 | 69 | 348 | 3.0 | 5.0 | 0.00 | 0.00 | 0.00 | 25 | 1008.7 |
| 20260506203022 | 70 | 348 | 2.0 | 5.0 | 0.00 | 0.00 | 0.00 | 27 | 1008.7 |
| 20260506202508 | 71 | 348 | 2.0 | 12.0 | 0.00 | 0.00 | 0.00 | 27 | 1008.8 |
| 20260506202012 | 71 | 348 | 7.0 | 12.0 | 0.00 | 0.00 | 0.00 | 23 | 1008.8 |
| 20260506201528 | 70 | 337 | 3.0 | 16.0 | 0.00 | 0.00 | 0.00 | 23 | 1008.8 |
| 20260506201010 | 70 | 342 | 8.0 | 16.0 | 0.00 | 0.00 | 0.00 | 25 | 1008.9 |
| 20260506200510 | 69 | 342 | 7.0 | 15.0 | 0.00 | 0.00 | 0.00 | 24 | 1008.9 |
| 20260506200008 | 68 | 260 | 3.0 | 12.0 | 0.00 | 0.00 | 0.00 | 29 | 1009.1 |
| 20260506195504 | 69 | 261 | 4.0 | 12.0 | 0.00 | 0.00 | 0.00 | 26 | 1009.3 |
| 20260506195005 | 67 | 234 | 3.0 | 12.0 | 0.00 | 0.00 | 0.00 | 27 | 1009.2 |
| 20260506194513 | 65 | 180 | 5.0 | 7.0 | 0.00 | 0.00 | 0.00 | 32 | 1009.2 |
| 20260506194005 | 64 | 180 | 4.0 | 5.0 | 0.00 | 0.00 | 0.00 | 42 | 1009.2 |
| 20260506193509 | 63 | 180 | 3.0 | 6.0 | 0.00 | 0.00 | 0.00 | 39 | 1009.3 |